Weather in Dubai

United Arab Emirates     25°11′42″N   55°16′42″E
temp.,
°C
wind,
m/s
gust,
m/s
humid.,
%
clouds,
%
prec.,
mm/h
press.,
hPa
HPBL,
m
1 march, mon
mon101:00+19ssw11500 0.0 1014509
04:00+19se22560 0.0 1013227
07:00+18ese33570 0.0 1015166
10:00+20sse01440 0.0 1017256
13:00+21nw43450 0.0 1015203
16:00+22nnw55520 0.0 1013241
19:00+22ne45609 0.0 1014159
22:00+22e455615 0.0 1015107
2 march, tue
tue201:00+22ene45540 0.0 101594
04:00+22ene56540 0.0 1013130
07:00+22ese44510 0.0 101573
10:00+26s45520 0.0 1017172
13:00+25wnw665755 0.0 1016180
16:00+25nnw676427 0.0 1013165
19:00+23ne67700 0.0 1014120
22:00+24ese56588 0.0 101475
3 march, wed
wed301:00+25e33570 0.0 101424
04:00+24nnw34590 0.0 101233
07:00+23nnw23720 0.0 101524
10:00+25w12660 0.0 1016196
13:00+25wnw44580 0.0 1015219
16:00+24wnw67690 0.0 1012276
19:00+23wnw56740 0.0 1014149
22:00+23w34740 0.0 1014130
4 march, thu
thu401:00+22w33740 0.0 1014109
04:00+21wnw22740 0.0 1012151
07:00+21wnw11750 0.0 101484
10:00+23w22580 0.0 1015223
13:00+24wnw33520 0.0 1013191
16:00+24wnw55610 0.0 1011208
19:00+23nw23650 0.0 101324
22:00+23wnw11690 0.0 101423
5 march, fri
fri501:00+22e11690 0.0 101323
04:00+22ene22620 0.0 101223
07:00+23e34520 0.0 101336
10:00+27ese22460 0.0 101596
13:00+28nw44400 0.0 101398
16:00+25nw912620 0.0 1012233
19:00+24nw56700 0.0 1012101
22:00+23wnw33740 0.0 101445